Norfolk, NE

9:02 AM CST on February 19, 2017 (GMT -0600)
Stefan Memorial

Weather History for KOFK - June, 2012

Change the Weather History Date:

Monday, June 25, 2012

  Actual Average Record
Temperature  
Mean Temperature 79 °F 73 °F  
Max Temperature 87 °F 85 °F 108 °F (1936)
Min Temperature 70 °F 61 °F 42 °F (1958)
Degree Days  
Heating Degree Days 0 0  
Month to date heating degree days 16 28  
Since 1 June heating degree days 16 28  
Since 1 July heating degree days 5456 6641  
Cooling Degree Days 14 8  
Month to date cooling degree days 197 141  
Year to date cooling degree days 349 202  
Since 1 June cooling degree days 197 141  
Growing Degree Days 30 (Base 50)    
Moisture  
Dew Point 68 °F    
Average Humidity 71    
Maximum Humidity 87    
Minimum Humidity 55    
Precipitation  
Precipitation 0.00 in 0.14 in 4.03 in (1969)
Month to date precipitation 0.89 3.58  
Year to date precipitation 10.85 13.28  
Snow  
Snow 0.00 in 0.00 in - ()
Month to date snowfall 0.0 0.0  
Since 1 July snowfall 15.3 30.5  
Snow Depth 0.00 in    
Sea Level Pressure  
Sea Level Pressure 29.94 in    
Wind  
Wind Speed 13 mph (East)    
Max Wind Speed 20 mph    
Max Gust Speed 25 mph    
Visibility 10 miles    
Events      
T = Trace of Precipitation, MM = Missing Value Source: NWS Daily Summary

Daily Weather History Graph

Daily Weather History Graph

Search for Another Location

Airport or City:

Trip Planner

Search our weather history database for the weather conditions in past years. The results will help you decide how hot, cold, wet, or windy it might be!

Date:

Astronomy

Jun. 25, 2012 Rise Set
Actual Time 5:55 AM CDT 9:09 PM CDT
Civil Twilight 5:21 AM CDT 9:43 PM CDT
Nautical Twilight 4:36 AM CDT 10:28 PM CDT
Astronomical Twilight 3:43 AM CDT 11:21 PM CDT
Moon 12:13 PM CDT (6/25) 12:02 AM CDT (6/25)
Length of Visible Light 16h 22m
Length of Day
15h 13m
Waxing Crescent, 34% of the Moon is Illuminated
Jun 25
Waxing Crescent
Jun 26
First Quarter
Jul 3
Full
Jul 10
Last Quarter
Jul 18
New

Hourly Weather History & Observations

Time (CDT) Temp. Heat Index Dew Point Humidity Pressure Visibility Wind Dir Wind Speed Gust Speed Precip Events Conditions
12:56 AM 75.0 °F - 70.0 °F 84% 29.92 in 10.0 mi East 5.8 mph - N/A   Mostly Cloudy
1:56 AM 75.0 °F - 69.1 °F 82% 29.93 in 10.0 mi ENE 9.2 mph 18.4 mph N/A   Mostly Cloudy
2:18 AM 75.2 °F - 69.8 °F 83% 29.98 in 10.0 mi East 10.4 mph - N/A   Overcast
2:51 AM 75.2 °F - 69.8 °F 83% 29.98 in 10.0 mi East 10.4 mph - N/A   Overcast
2:56 AM 75.0 °F - 69.1 °F 82% 29.93 in 10.0 mi East 10.4 mph - N/A   Overcast
3:56 AM 73.9 °F - 69.1 °F 85% 29.94 in 10.0 mi East 9.2 mph - N/A   Overcast
4:56 AM 73.9 °F - 68.0 °F 82% 29.95 in 10.0 mi ENE 6.9 mph - N/A   Overcast
5:56 AM 73.9 °F - 68.0 °F 82% 29.97 in 10.0 mi ENE 8.1 mph - N/A   Overcast
6:56 AM 73.9 °F - 66.9 °F 79% 29.98 in 10.0 mi East 9.2 mph - N/A   Overcast
7:56 AM 73.0 °F - 66.9 °F 81% 29.99 in 10.0 mi East 10.4 mph - N/A   Overcast
8:56 AM 73.9 °F - 66.9 °F 79% 30.00 in 10.0 mi East 12.7 mph - N/A   Overcast
9:56 AM 75.0 °F - 66.9 °F 76% 30.00 in 10.0 mi East 12.7 mph - N/A   Overcast
10:56 AM 75.9 °F - 66.9 °F 74% 29.99 in 10.0 mi East 12.7 mph - N/A   Overcast
11:56 AM 81.0 °F 83.8 °F 68.0 °F 65% 29.98 in 10.0 mi ESE 17.3 mph 23.0 mph N/A   Partly Cloudy
12:56 PM 84.0 °F 87.0 °F 68.0 °F 58% 29.97 in 10.0 mi East 15.0 mph - N/A   Partly Cloudy
1:56 PM 84.9 °F 88.2 °F 68.0 °F 57% 29.96 in 10.0 mi East 15.0 mph 21.9 mph N/A   Partly Cloudy
2:56 PM 84.9 °F 88.2 °F 68.0 °F 57% 29.94 in 10.0 mi ESE 18.4 mph 25.3 mph N/A   Scattered Clouds
3:56 PM 86.0 °F 89.4 °F 68.0 °F 55% 29.93 in 10.0 mi ESE 17.3 mph 20.7 mph N/A   Scattered Clouds
4:56 PM 84.0 °F 87.8 °F 69.1 °F 61% 29.91 in 10.0 mi ESE 16.1 mph 21.9 mph N/A   Partly Cloudy
5:56 PM 84.0 °F 87.0 °F 68.0 °F 58% 29.90 in 10.0 mi ESE 16.1 mph 21.9 mph N/A   Mostly Cloudy
6:56 PM 82.0 °F 84.9 °F 68.0 °F 62% 29.89 in 10.0 mi ESE 17.3 mph 24.2 mph N/A   Scattered Clouds
7:56 PM 81.0 °F 83.8 °F 68.0 °F 65% 29.88 in 10.0 mi ESE 11.5 mph 19.6 mph N/A   Mostly Cloudy
8:56 PM 78.1 °F - 66.9 °F 68% 29.88 in 10.0 mi ESE 11.5 mph - N/A   Overcast
9:20 PM 78.8 °F - 66.2 °F 65% 29.92 in 10.0 mi ESE 11.5 mph - N/A   Overcast
9:56 PM 77.0 °F - 66.9 °F 71% 29.88 in 10.0 mi ESE 13.8 mph - N/A   Overcast
11:56 PM 73.0 °F - 64.9 °F 76% 29.89 in 10.0 mi ESE 12.7 mph - N/A   Overcast